Date String (YYYY-MM-DD hh:mm:ss) UTC,Instrument flags,absolute air pressure of the measurement (hPa),sample flow rate (lpm),inlet stack bypass flow (lpm),air temperature of the measurement (°C),ambient temperature measured by the external sensor (°C),aerosol sample conditioner tube jacket temperature (°C),OPC LED temperature (°C),internal box temperature (°C),relative humidity of the measurement (%),span deviation,mass concentration of particles derived from Lorenz-Mie calculation of OPC scattering (μg/m³),mass concentration of particles derived from Lorenz-Mie calculation of OPC scattering (μg/m³),mass concentration of particles derived from Lorenz-Mie calculation of OPC scattering (μg/m³)
DateTimeUTC,F1_M11,P_M11,Q1_M11,Q2_M11,T1_M11,T2_M11,T3_M11,T4_M11,T5_M11,U1_M11,ZSPAN_M11,X0_M11,X2_M11,X1_M11
2023-08-13 23:00:00,SystemResetWarning,0838.1,4.99,000.00,029.3,026.3,000.0,037.7,030.7,25.1,0000.0,0009.04,0003.72,0003.08
2023-08-13 23:01:00,SystemResetWarning,0838.1,5.00,000.00,029.3,026.7,000.0,037.7,030.8,24.9,0000.0,0009.15,0003.76,0003.09
2023-08-13 23:02:00,SystemResetWarning,0838.2,5.00,000.00,029.3,027.0,000.0,037.8,030.9,24.9,0000.0,0008.80,0003.73,0003.09
2023-08-13 23:03:00,SystemResetWarning,0838.2,5.00,000.00,029.3,027.3,000.0,037.8,031.0,25.0,0000.0,0008.42,0003.74,0003.10
2023-08-13 23:04:00,SystemResetWarning,0838.2,5.00,000.00,029.4,027.6,000.0,037.8,031.1,25.0,0000.0,0008.79,0003.71,0003.10
2023-08-13 23:05:00,SystemResetWarning,0838.2,5.00,000.00,029.4,027.8,000.0,037.8,031.1,24.8,0000.0,0008.94,0003.70,0003.11
2023-08-13 23:06:00,SystemResetWarning,0838.2,5.00,000.00,029.4,028.0,000.0,037.9,031.2,25.0,0000.0,0008.90,0003.73,0003.11
2023-08-13 23:07:00,SystemResetWarning,0838.3,5.00,000.00,029.5,028.2,000.0,037.9,031.2,24.8,0000.0,0009.14,0003.72,0003.11
2023-08-13 23:08:00,SystemResetWarning,0838.3,4.99,000.00,029.5,028.0,000.0,037.9,031.2,24.7,0000.0,0008.81,0003.66,0003.11
2023-08-13 23:09:00,SystemResetWarning,0838.3,4.98,000.00,029.5,026.3,000.0,037.7,030.9,24.6,0000.0,0009.09,0003.66,0003.11
2023-08-13 23:10:00,SystemResetWarning,0838.3,5.02,000.00,029.4,025.7,000.0,037.6,030.7,24.6,0000.0,0009.05,0003.66,0003.11
2023-08-13 23:11:00,SystemResetWarning,0838.3,5.00,000.00,029.3,025.8,000.0,037.7,030.6,24.8,0000.0,0008.90,0003.65,0003.10
2023-08-13 23:12:00,SystemResetWarning,0838.2,4.99,000.00,029.3,026.2,000.0,037.7,030.7,24.9,0000.0,0008.91,0003.64,0003.10
2023-08-13 23:13:00,SystemResetWarning,0838.2,5.00,000.00,029.3,026.5,000.0,037.7,030.8,25.3,0000.0,0008.97,0003.66,0003.11
2023-08-13 23:14:00,SystemResetWarning,0838.2,5.00,000.00,029.3,026.9,000.0,037.8,030.9,25.0,0000.0,0009.10,0003.67,0003.10
2023-08-13 23:15:00,SystemResetWarning,0838.3,4.99,000.00,029.3,027.2,000.0,037.8,031.0,24.9,0000.0,0008.77,0003.69,0003.11
2023-08-13 23:16:00,SystemResetWarning,0838.3,5.00,000.00,029.3,027.5,000.0,037.8,031.0,24.8,0000.0,0008.56,0003.72,0003.12
2023-08-13 23:17:00,SystemResetWarning,0838.3,5.01,000.00,029.4,027.8,000.0,037.8,031.1,25.0,0000.0,0008.43,0003.71,0003.13
2023-08-13 23:18:00,SystemResetWarning,0838.3,5.01,000.00,029.4,028.0,000.0,037.8,031.2,25.0,0000.0,0008.04,0003.73,0003.14
2023-08-13 23:19:00,SystemResetWarning,0838.4,5.00,000.00,029.5,028.1,000.0,037.9,031.2,25.2,0000.0,0008.49,0003.76,0003.15
2023-08-13 23:20:00,SystemResetWarning,0838.4,5.00,000.00,029.5,028.2,000.0,037.9,031.2,24.9,0000.0,0008.50,0003.76,0003.16
2023-08-13 23:21:00,SystemResetWarning,0838.4,4.97,000.00,029.5,026.7,000.0,037.8,030.9,25.0,0000.0,0008.82,0003.76,0003.17
2023-08-13 23:22:00,SystemResetWarning,0838.4,5.02,000.00,029.4,025.0,000.0,037.6,030.5,24.9,0000.0,0009.13,0003.77,0003.19
2023-08-13 23:23:00,SystemResetWarning,0838.3,5.01,000.00,029.3,024.6,000.0,037.5,030.4,25.0,0000.0,0009.49,0003.76,0003.19
2023-08-13 23:24:00,SystemResetWarning,0838.3,5.00,000.00,029.1,024.9,000.0,037.5,030.3,25.2,0000.0,0009.41,0003.73,0003.20
2023-08-13 23:25:00,SystemResetWarning,0838.2,5.00,000.00,029.1,025.4,000.0,037.6,030.3,25.2,0000.0,0009.28,0003.73,0003.20
2023-08-13 23:26:00,SystemResetWarning,0838.3,5.00,000.00,029.0,025.9,000.0,037.6,030.5,25.2,0000.0,0009.51,0003.78,0003.22
2023-08-13 23:27:00,SystemResetWarning,0838.4,5.00,000.00,029.1,026.3,000.0,037.6,030.6,25.2,0000.0,0010.44,0003.77,0003.21
2023-08-13 23:28:00,SystemResetWarning,0838.4,5.00,000.00,029.1,026.7,000.0,037.6,030.7,25.2,0000.0,0010.87,0003.84,0003.22
2023-08-13 23:29:00,SystemResetWarning,0838.4,4.99,000.00,029.1,027.1,000.0,037.6,030.8,25.4,0000.0,0010.91,0003.87,0003.22
2023-08-13 23:30:00,SystemResetWarning,0838.4,5.00,000.00,029.2,027.4,000.0,037.6,030.9,25.5,0000.0,0010.42,0003.84,0003.23
2023-08-13 23:31:00,SystemResetWarning,0838.3,5.00,000.00,029.2,027.6,000.0,037.7,030.9,25.0,0000.0,0010.21,0003.83,0003.23
2023-08-13 23:32:00,SystemResetWarning,0838.3,5.00,000.00,029.2,027.8,000.0,037.7,031.0,25.2,0000.0,0010.14,0003.87,0003.24
2023-08-13 23:33:00,SystemResetWarning,0838.3,5.00,000.00,029.3,028.0,000.0,037.7,031.0,25.2,0000.0,0009.99,0003.87,0003.24
2023-08-13 23:34:00,SystemResetWarning,0838.4,5.00,000.00,029.3,028.1,000.0,037.7,031.1,25.4,0000.0,0009.66,0003.90,0003.25
2023-08-13 23:35:00,SystemResetWarning,0838.3,5.00,000.00,029.4,028.3,000.0,037.8,031.1,25.0,0000.0,0009.98,0003.91,0003.25
2023-08-13 23:36:00,SystemResetWarning,0838.3,5.00,000.00,029.4,028.4,000.0,037.8,031.2,24.9,0000.0,0010.11,0003.92,0003.25
2023-08-13 23:37:00,SystemResetWarning,0838.3,5.00,000.00,029.5,028.4,000.0,037.8,031.2,24.7,0000.0,0010.67,0003.92,0003.24
2023-08-13 23:38:00,SystemResetWarning,0838.2,4.99,000.00,029.5,026.9,000.0,037.7,030.9,24.8,0000.0,0009.97,0003.93,0003.25
2023-08-13 23:39:00,SystemResetWarning,0838.2,5.01,000.00,029.3,025.0,000.0,037.6,030.6,24.8,0000.0,0009.86,0003.89,0003.25
2023-08-13 23:40:00,SystemResetWarning,0838.1,5.02,000.00,029.2,024.6,000.0,037.5,030.4,25.2,0000.0,0009.99,0003.90,0003.25
2023-08-13 23:41:00,SystemResetWarning,0838.2,5.00,000.00,029.1,024.9,000.0,037.5,030.2,25.2,0000.0,0010.61,0003.91,0003.25
2023-08-13 23:42:00,SystemResetWarning,0838.2,5.00,000.00,029.0,025.4,000.0,037.6,030.3,25.3,0000.0,0010.83,0003.93,0003.25
2023-08-13 23:43:00,SystemResetWarning,0838.2,5.00,000.00,029.0,025.8,000.0,037.6,030.5,25.3,0000.0,0010.67,0003.92,0003.25
2023-08-13 23:44:00,SystemResetWarning,0838.2,5.00,000.00,029.0,026.3,000.0,037.6,030.6,25.4,0000.0,0010.67,0003.93,0003.24
2023-08-13 23:45:00,SystemResetWarning,0838.2,5.01,000.00,029.1,026.7,000.0,037.6,030.7,25.4,0000.0,0010.54,0003.90,0003.24
2023-08-13 23:46:00,SystemResetWarning,0838.2,5.00,000.00,029.1,027.0,000.0,037.6,030.8,25.3,0000.0,0010.22,0003.90,0003.24
2023-08-13 23:47:00,SystemResetWarning,0838.2,5.00,000.00,029.1,027.3,000.0,037.6,030.8,25.4,0000.0,0010.93,0003.91,0003.24
2023-08-13 23:48:00,SystemResetWarning,0838.2,4.99,000.00,029.2,027.6,000.0,037.6,030.9,25.4,0000.0,0011.15,0003.86,0003.24
2023-08-13 23:49:00,SystemResetWarning,0838.2,4.99,000.00,029.2,027.8,000.0,037.6,031.0,25.2,0000.0,0011.27,0003.86,0003.24
2023-08-13 23:50:00,SystemResetWarning,0838.2,5.00,000.00,029.3,028.0,000.0,037.7,031.0,25.1,0000.0,0011.20,0003.91,0003.24
2023-08-13 23:51:00,SystemResetWarning,0838.2,5.00,000.00,029.3,028.1,000.0,037.7,031.1,25.1,0000.0,0011.17,0003.89,0003.24
2023-08-13 23:52:00,SystemResetWarning,0838.2,5.00,000.00,029.3,028.2,000.0,037.7,031.1,25.0,0000.0,0011.07,0003.89,0003.23
2023-08-13 23:53:00,SystemResetWarning,0838.2,5.00,000.00,029.4,028.3,000.0,037.8,031.2,25.2,0000.0,0011.68,0003.91,0003.24
2023-08-13 23:54:00,SystemResetWarning,0838.2,5.00,000.00,029.4,028.4,000.0,037.8,031.2,25.1,0000.0,0011.98,0003.88,0003.24
2023-08-13 23:55:00,SystemResetWarning,0838.2,4.99,000.00,029.5,028.0,000.0,037.8,031.2,25.1,0000.0,0011.83,0003.86,0003.24
2023-08-13 23:56:00,SystemResetWarning,0838.2,4.99,000.00,029.4,026.2,000.0,037.7,030.8,25.2,0000.0,0011.94,0003.89,0003.23
2023-08-13 23:57:00,SystemResetWarning,0838.2,5.00,000.00,029.4,025.6,000.0,037.6,030.7,25.4,0000.0,0012.07,0003.95,0003.24
2023-08-13 23:58:00,SystemResetWarning,0838.1,5.01,000.00,029.3,025.8,000.0,037.6,030.6,25.3,0000.0,0011.41,0003.95,0003.24
2023-08-13 23:59:00,SystemResetWarning,0838.2,5.01,000.00,029.2,026.2,000.0,037.6,030.6,25.1,0000.0,0010.32,0003.93,0003.24
